{"data":{"norad_id":57115,"epoch":"2026-05-25T03:59:51.162432Z","epoch_age_seconds":53922,"freshness":"FRESH","line1":"1 57115U 23090Q   26145.16656438  .00027426  00000+0  13985-2 0  9998","line2":"2 57115  42.9978 199.9154 0020579 332.0929  27.8814 15.16077561162142","mean_motion":15.16077561,"eccentricity":0.0020579,"inclination_deg":42.9978,"raan_deg":199.9154,"arg_perigee_deg":332.0929,"mean_anomaly_deg":27.8814,"bstar":0.0013985,"rev_number":16214,"period_min":94.981947958532,"perigee_km":503.51815310128,"apogee_km":531.90007654066,"semimajor_km":6895.846114821,"source":"CELESTRAK","updated_at":"2026-05-25T13:38:18.242284Z"}}